Williamstown, MA

1:45 PM EDT on August 26, 2016 (GMT -0400)
Harriman And West

Weather History for KAQW - December, 2011

Change the Weather History Date:

Saturday, December 10, 2011

  Actual Average Record
Temperature  
Mean Temperature 30 °F -  
Max Temperature 35 °F 37 °F 57 °F (2008)
Min Temperature 23 °F 22 °F 1 °F (2010)
Degree Days  
Heating Degree Days 36    
Moisture  
Dew Point 19 °F    
Average Humidity 62    
Maximum Humidity 92    
Minimum Humidity 44    
Precipitation  
Precipitation 0.00 in - - ()
Sea Level Pressure  
Sea Level Pressure 30.28 in    
Wind  
Wind Speed 7 mph (West)    
Max Wind Speed 16 mph    
Max Gust Speed 22 mph    
Visibility 9 miles    
Events      
Averages and records for this station are not official NWS values.
T = Trace of Precipitation, MM = Missing Value Source: NWS Daily Summary

Daily Weather History Graph

Daily Weather History Graph

Search for Another Location

Airport or City:

Trip Planner

Search our weather history database for the weather conditions in past years. The results will help you decide how hot, cold, wet, or windy it might be!

Date:

Astronomy

Dec. 10, 2011 Rise Set
Actual Time 7:11 AM EST 4:18 PM EST
Civil Twilight 6:39 AM EST 4:50 PM EST
Nautical Twilight 6:04 AM EST 5:26 PM EST
Astronomical Twilight 5:30 AM EST 6:00 PM EST
Moon 4:30 PM EST (12/10) 7:09 AM EST (12/10)
Length of Visible Light 10h 11m
Length of Day
9h 07m
Full, 100% of the Moon is Illuminated
Dec 10
Full
Dec 17
Last Quarter
Dec 24
New
Jan 1
First Quarter
Jan 9
Full

Hourly Weather History & Observations

Time (EST) Temp. Windchill Dew Point Humidity Pressure Visibility Wind Dir Wind Speed Gust Speed Precip Events Conditions
12:52 AM 28.0 °F - 26.1 °F 92% 30.20 in 4.0 mi Calm Calm - N/A   Overcast
1:52 AM 28.0 °F - 25.0 °F 88% 30.19 in 3.0 mi Calm Calm - N/A   Overcast
3:52 AM 28.9 °F 25.2 °F 26.1 °F 89% 30.17 in 5.0 mi WNW 3.5 mph - N/A   Overcast
4:52 AM 32.0 °F 27.5 °F 28.0 °F 85% 30.17 in 9.0 mi WNW 4.6 mph - N/A   Overcast
5:52 AM 35.1 °F 29.3 °F 27.0 °F 72% 30.18 in 10.0 mi West 6.9 mph - N/A   Overcast
6:01 AM 35.6 °F 28.6 °F 28.4 °F 75% 30.17 in 10.0 mi West 9.2 mph - N/A   Overcast
6:39 AM 35.6 °F 28.6 °F 26.6 °F 70% 30.19 in 10.0 mi West 9.2 mph - N/A   Overcast
6:52 AM 35.1 °F 29.3 °F 27.0 °F 72% 30.22 in 10.0 mi West 6.9 mph - N/A   Overcast
7:52 AM 35.1 °F 25.9 °F 26.1 °F 70% 30.24 in 10.0 mi West 13.8 mph 19.6 mph N/A   Overcast
8:52 AM 35.1 °F 28.6 °F 23.0 °F 61% 30.26 in 10.0 mi WNW 8.1 mph - N/A   Overcast
9:43 AM 33.8 °F 26.4 °F 21.2 °F 60% 30.26 in 10.0 mi West 9.2 mph - N/A   Overcast
9:52 AM 33.1 °F 25.5 °F 21.9 °F 64% 30.29 in 10.0 mi West 9.2 mph - N/A   Overcast
10:09 AM 33.8 °F 24.8 °F 21.2 °F 60% 30.26 in 10.0 mi West 12.7 mph - N/A   Overcast
10:52 AM 34.0 °F 26.0 °F 19.0 °F 54% 30.29 in 10.0 mi West 10.4 mph 19.6 mph N/A   Mostly Cloudy
11:52 AM 35.1 °F 26.4 °F 16.0 °F 46% 30.28 in 10.0 mi West 12.7 mph 18.4 mph N/A   Clear
12:52 PM 34.0 °F 26.6 °F 17.1 °F 50% 30.27 in 10.0 mi West 9.2 mph - N/A   Mostly Cloudy
1:52 PM 32.0 °F 22.5 °F 17.1 °F 54% 30.29 in 10.0 mi West 12.7 mph 21.9 mph N/A   Mostly Cloudy
2:52 PM 32.0 °F 24.2 °F 16.0 °F 52% 30.29 in 10.0 mi West 9.2 mph 16.1 mph N/A   Scattered Clouds
3:52 PM 30.9 °F 19.8 °F 14.0 °F 50% 30.31 in 10.0 mi West 16.1 mph 21.9 mph N/A   Clear
5:52 PM 28.9 °F 19.2 °F 14.0 °F 54% 30.34 in 10.0 mi West 11.5 mph - N/A   Clear
6:52 PM 27.0 °F 18.7 °F 14.0 °F 58% 30.38 in 10.0 mi West 8.1 mph - N/A   Clear
7:52 PM 27.0 °F 16.1 °F 9.0 °F 47% 30.40 in 10.0 mi West 12.7 mph 19.6 mph N/A   Clear
8:52 PM 26.1 °F 17.6 °F 7.0 °F 44% 30.42 in 10.0 mi West 8.1 mph - N/A   Clear
9:52 PM 25.0 °F 16.3 °F 7.0 °F 46% 30.43 in 10.0 mi West 8.1 mph - N/A   Clear
10:52 PM 24.1 °F 16.0 °F 8.1 °F 51% 30.44 in 10.0 mi West 6.9 mph - N/A   Clear
11:52 PM 23.0 °F 14.7 °F 9.0 °F 55% 30.46 in 10.0 mi West 6.9 mph - N/A   Clear